Regional Weather Roundup
Issued by NWS

Home | Current Version | Previous Version | Graphics & Text | Print | Product List | Glossary On
Versions: 1 2 3 4 5 6 7 8 9 10 11 12 13 14 15 16 17 18 19 20 21 22 23 24 25 26 27 28 29 30 31 32 33 34 35 36 37 38 39 40 41 42 43 44 45 46 47 48 49 50
430
ASUS43 KIND 162309
RWRIN

WEATHER ROUNDUP FOR INDIANA
NATIONAL WEATHER SERVICE INDIANAPOLIS IN
700 PM EDT MON OCT 16 2017

NOTE: "FAIR" INDICATES FEW OR NO CLOUDS BELOW 12,000 FEET WITH NO
SIGNIFICANT WEATHER AND/OR OBSTRUCTIONS TO VISIBILITY.

* - STATION DOES NOT REPORT WEATHER SUCH AS PRECIPITATION OR FOG.

+ - STATION NOT QUALITY CONTROLLED BY THE NATIONAL WEATHER SERVICE.
    USE DATA WITH CAUTION...ESPECIALLY DEWPOINT AND RELATIVE
    HUMIDITY OBSERVATIONS.

INZ001>003-010>013-019-020-170000-
NORTHWEST INDIANA

CITY           SKY/WX    TMP DP  RH WIND       PRES   REMARKS
GARY /AIRPORT/ CLEAR     61  32  33 W7        30.23F
KNOX *+        CLEAR     55  37  50 SW3       30.24F
LA PORTE +     CLEAR     55  39  54 CALM      30.24S
MICHIGAN CITY+ CLEAR     54  43  66 CALM      30.24S
MONTICELLO +   CLEAR     58  34  41 SW3       30.25F
RENSSELAER +   CLEAR     59  25  27 SW5       30.25S
VALPARAISO     CLEAR     58  38  47 W6        30.24S

$$

LMZ046-743>745-170000-
SOUTHERN LAKE MICHIGAN

STATION/POSITION TIME  TEMP    WIND        PRES    WAVE
                       AIR SEA DIR/SP/G            HT
                 (UTC) (F)     (DEG/KT/KT) (MB)    (FT)
BURNS HARBOR     2240   62     240/  8/ 10 1024.0S
MICHIGAN CITY    2240   59     190/  3/  3   N/A
5NW MICH CITY    2300   58 58  170/  2/  4   N/A     1

$$

INZ004-005-014>016-021>024-170000-
NORTH CENTRAL INDIANA

CITY           SKY/WX    TMP DP  RH WIND       PRES   REMARKS
ELKHART        CLEAR     55  37  50 CALM      30.25S
GOSHEN         CLEAR     55  36  48 CALM      30.25S
LOGANSPORT +   CLEAR     52  37  58 SW5       30.27F
PERU/GRISSOM   CLEAR     57  38  49 W3        30.26F
SOUTH BEND     CLEAR     56  39  53 CALM      30.25S
WARSAW +       CLEAR     54  37  54 CALM      30.26S

$$

INZ006>009-017-018-025>027-170000-
NORTHEAST INDIANA

CITY           SKY/WX    TMP DP  RH WIND       PRES   REMARKS
AUBURN +       CLEAR     52  39  62 CALM      30.27S
FORT WAYNE     PTCLDY    54  38  54 CALM      30.27S
HUNTINGTON +   PTCLDY    55  34  44 CALM      30.27S
KENDALLVILLE + CLEAR     54  38  54 CALM      30.26S

$$

INZ028-029-035-036-043>045-051>053-170000-
WEST CENTRAL INDIANA

CITY           SKY/WX    TMP DP  RH WIND       PRES   REMARKS
GREENCASTLE +  CLEAR     54  36  50 CALM      30.30S
LAFAYETTE      CLEAR     58  39  49 SW3       30.26S
TERRE HAUTE    CLEAR     58  36  43 W5        30.29F

$$

INZ030>032-037>040-046>048-054>057-064-065-170000-
CENTRAL INDIANA

CITY           SKY/WX    TMP DP  RH WIND       PRES   REMARKS
CP ATTERBURY + CLEAR     55  34  44 CALM      30.30S
COLUMBUS       PTCLDY    57  30  35 N3        30.30S
FISHERS *+     CLEAR     54  41  62 CALM      30.29S
FRANKFORT +    MOCLDY    58  38  47 W3        30.29S
GREENWOOD *+   CLEAR     61  36  39 CALM      30.29F
INDIANAPOLIS   PTCLDY    56  37  49 W5        30.29S
-EAGLE CREEK   PTCLDY    59  35  40 CALM      30.28S
KOKOMO +       CLEAR     56  38  50 SW5       30.28S
MT COMFORT *+  CLEAR     55  41  58 CALM      30.29S
SHELBYVILLE    CLEAR     56  35  45 NW3       30.28S
ZIONSVILLE +   CLEAR     55  36  49 CALM      30.29S

$$

INZ033-034-041-042-049-050-058-059-170000-
EAST CENTRAL INDIANA

CITY           SKY/WX    TMP DP  RH WIND       PRES   REMARKS
MUNCIE         PTCLDY    54  39  57 CALM      30.28S
RICHMOND +     RAIN      54  34  47 CALM      30.29S

$$

INZ060-061-067>069-081>083-085>088-170000-
SOUTHWEST INDIANA

CITY           SKY/WX    TMP DP  RH WIND       PRES   REMARKS
EVANSVILLE     CLEAR     59  37  44 N3        30.31S
HUNTINGBURG +  CLEAR     58  36  43 N3        30.30F
WASHINGTON +   CLEAR     57  33  40 N3        30.30S

$$

INZ062-063-066-070>080-084-089>092-170000-
SOUTH CENTRAL AND SOUTHEAST INDIANA

CITY           SKY/WX    TMP DP  RH WIND       PRES   REMARKS
BEDFORD +      CLEAR     57  34  41 CALM      30.29S
BLOOMINGTON    CLEAR     58  34  40 CALM      30.29F
MADISON *+     CLEAR     55  36  47 CALM      30.31R
NORTH VERNON + CLEAR     54  37  54 CALM      30.30S
SEYMOUR +      CLEAR     59  34  38 N5        30.30R

$$





USA.gov is the U.S. government's official web portal to all federal, state and local government web resources and services.